Location: Peebles
(55.6412°N, 3.1714°W)
Time: 14:19:56
(UTC+01:00)

FENGYUN 1C DEB - Pass Details

Date: 03 July 2022
Orbit: 733 x 848 km, 99.0° (Epoch: 16 August)

Event Time Altitude Azimuth Distance (km) Brightness Sun altitude
Rises 02:58:19 0° 96° (E) 3,237 ? -8.5°
Reaches altitude 10° 03:01:53 10° 69° (ENE) 2,292 ? -8.3°
Maximum altitude 03:04:06 13° 43° (NE) 2,075 ? -8.1°
Drops below altitude 10° 03:06:18 10° 16° (NNE) 2,273 ? -8.0°
Sets 03:09:48 0° 350° (N) 3,187 ? -7.8°
